Regional Weather Roundup
Issued by NWS

Home | Current Version | Previous Version | Text Only | Print | Product List | Glossary Off
Versions: 1 2 3 4 5 6 7 8 9 10 11 12 13 14 15 16 17 18 19 20 21 22 23 24 25 26 27 28 29 30 31 32 33 34 35 36 37 38 39 40 41 42 43 44 45 46 47 48 49 50

000
ASUS43 KOAX 181602
RWRNE

WEATHER ROUNDUP FOR NEBRASKA
NATIONAL WEATHER SERVICE OMAHA NE
1100 AM CDT SAT APR 18 2015

NOTES: SATELLITE DATA IS BEING USED TO AUGMENT CLOUD COVER ABOVE
       12000 FEET.
       "FAIR" INDICATES FEW OR NO CLOUDS BELOW 12,000 FEET WITH NO
       SIGNIFICANT WEATHER AND/OR OBSTRUCTIONS TO VISIBILITY.

  * THESE STATIONS DO NOT REPORT WEATHER SUCH AS RAIN...SNOW OR FOG.

NEZ001>004-019>022-054>056-181700-
NEBRASKA PANHANDLE

CITY           SKY/WX    TMP DP  RH WIND       PRES   REMARKS
SCOTTSBLUFF    CLOUDY    48  32  53 CALM      29.93S
ALLIANCE       CLOUDY    48  44  86 SE5       29.92S
CHADRON        CLOUDY    47  44  90 NE9       29.95S
SIDNEY         CLOUDY    46  42  86 SW3       29.95R
$$

NEZ057>060-069>072-079>082-181700-
SOUTHWEST NEBRASKA

CITY           SKY/WX    TMP DP  RH WIND       PRES   REMARKS
NORTH PLATTE   CLOUDY    55  49  80 E9        29.91R
IMPERIAL       MOSUNNY   55  45  68 E5        29.91F
LEXINGTON      PTSUNNY   58  55  89 NE3       29.91R
MCCOOK         SUNNY     58  49  72 SE8       29.91R
$$

NEZ005>010-023>029-035>040-094-181700-
NORTH CENTRAL NEBRASKA

CITY           SKY/WX    TMP DP  RH WIND       PRES   REMARKS
VALENTINE      CLOUDY    51  48  89 E9        29.92S
AINSWORTH      CLOUDY    53  51  94 NE9       29.92R
BROKEN BOW     CLOUDY    58  53  84 E7        29.90R
ORD            CLOUDY    57  54  89 SE6       29.89S
$$

NEZ041-046>049-061>064-073>077-083>087-181700-
SOUTH CENTRAL NEBRASKA

CITY           SKY/WX    TMP DP  RH WIND       PRES   REMARKS
GRAND ISLAND   CLOUDY    59  56  89 E5        29.91R
HASTINGS       CLOUDY    59  55  87 E3        29.91R
KEARNEY *      PTSUNNY   59  54  82 NE3       29.91R
YORK           CLOUDY    61  57  88 E6        29.91R
$$

NEZ011>018-030>034-042>045-181700-
NORTHEAST NEBRASKA

CITY           SKY/WX    TMP DP  RH WIND       PRES   REMARKS
BLAIR          CLOUDY    59  56  90 S3        29.93S
COLUMBUS *     CLOUDY    57  54  88 E10       29.92R
FREMONT        RAIN      60  57  89 CALM      29.92F
TEKAMAH        LGT RAIN  63  59  87 S13       29.94R FOG
$$

NEZ050>053-065>068-078-088>093-181700-
SOUTHEAST NEBRASKA

CITY           SKY/WX    TMP DP  RH WIND       PRES   REMARKS
LINCOLN        CLOUDY    61  59  93 E8        29.91F FOG
OMAHA EPPLEY   TSTM      61  60  97 S5        29.93R VSB 1
FALLS CITY     LGT RAIN  62  58  86 N5        29.91R FOG
PLATTSMOUTH    CLOUDY    59  56  91 SW5       29.93S
$$

NEZ044-045-051>053-067-181700-
OMAHA AREA

CITY           SKY/WX    TMP DP  RH WIND       PRES   REMARKS
OMAHA EPPLEY   TSTM      61  60  97 S5        29.93R VSB 1
BLAIR          CLOUDY    59  56  90 S3        29.93S
FREMONT        RAIN      60  57  89 CALM      29.92F
OFFUTT AFB     LGT RAIN  61  58  92 NE2       29.94R FOG
PLATTSMOUTH    CLOUDY    59  56  91 SW5       29.93S
$$



USA.gov is the U.S. government's official web portal to all federal, state and local government web resources and services.